Weather History for Glasgow, United Kingdom

Change the Weather History Date:

Monday, February 18, 2013

  Actual Average Record
Temperature  
Mean Temperature 34 °F -  
Max Temperature 46 °F 46 °F 50 °F (1998)
Min Temperature 23 °F 33 °F 23 °F (2008)
Degree Days  
Heating Degree Days 30    
Moisture  
Dew Point 29 °F    
Average Humidity 86    
Maximum Humidity 100    
Minimum Humidity 57    
Precipitation  
Precipitation 0.00 in - - ()
Sea Level Pressure  
Sea Level Pressure 30.10 in    
Wind  
Wind Speed 2 mph ()    
Max Wind Speed 5 mph    
Max Gust Speed -    
Visibility 3.2 miles    
Events Fog    
Averages and records for this station are not official NWS values.
T = Trace of Precipitation, MM = Missing Value Source: Averaged Metar Reports

Daily Weather History Graph

Daily Weather History Graph

Search for Another Location

Airport:

Trip Planner

Search our weather history database for the weather conditions in past years. The results will help you decide how hot, cold, wet, or windy it might be!

Date:

Astronomy

Feb. 18, 2013 Rise Set
Actual Time 7:35 AM GMT 5:28 PM GMT
Civil Twilight 6:57 AM GMT 6:07 PM GMT
Nautical Twilight 6:14 AM GMT 6:50 PM GMT
Astronomical Twilight 5:31 AM GMT 7:33 PM GMT
Moon 10:32 AM GMT (2/18) 2:32 AM GMT (2/18)
Length of Visible Light 11h 09m
Length of Day
9h 53m
First Quarter, 56% of the Moon is Illuminated
Feb 18
First Quarter
Feb 25
Full
Mar 4
Last Quarter
Mar 11
New
Mar 19
First Quarter

Hourly Weather History & Observations

Time (GMT) Temp. Windchill Dew Point Humidity Pressure Visibility Wind Dir Wind Speed Gust Speed Precip Events Conditions
12:20 AM 32.0 °F - 30.2 °F 93% 30.09 in - ENE 2.3 mph - N/A   Clear
12:50 AM 32.0 °F 28.7 °F 32.0 °F 100% 30.09 in - ENE 3.5 mph - N/A   Clear
1:20 AM 30.2 °F - 30.2 °F 100% 30.09 in - Calm Calm - N/A   Clear
1:50 AM 28.4 °F - 26.6 °F 93% 30.09 in 0.9 mi East 2.3 mph - N/A   Haze
2:20 AM 28.4 °F - 26.6 °F 93% 30.09 in 0.2 mi Calm Calm - N/A Fog Light Freezing Fog
2:50 AM 28.4 °F - 26.6 °F 93% 30.09 in - Calm Calm - N/A   Clear
3:20 AM 24.8 °F - 24.8 °F 100% 30.09 in 1.2 mi Calm Calm - N/A   Haze
3:50 AM 26.6 °F - 24.8 °F 93% 30.09 in 3.7 mi Variable 2.3 mph - N/A Fog Patches of Fog
4:20 AM 24.8 °F - 24.8 °F 100% 30.09 in 3.7 mi Calm Calm - N/A Fog Patches of Fog
4:50 AM 28.4 °F - 26.6 °F 93% 30.09 in 3.1 mi Variable 2.3 mph - N/A Fog Patches of Fog
5:20 AM 28.4 °F - 26.6 °F 93% 30.09 in 3.1 mi Variable 2.3 mph - N/A   Mist
5:50 AM 23.0 °F - 23.0 °F 100% 30.09 in 3.1 mi Calm Calm - N/A   Haze
6:20 AM 24.8 °F - 24.8 °F 100% 30.09 in 3.1 mi Calm Calm - N/A   Haze
6:50 AM 28.4 °F - 26.6 °F 93% 30.09 in 3.1 mi Variable 2.3 mph - N/A   Haze
7:20 AM 26.6 °F - 24.8 °F 93% 30.09 in 3.1 mi Calm Calm - N/A   Haze
7:50 AM 24.8 °F - 23.0 °F 93% 30.09 in 2.8 mi Variable 2.3 mph - N/A   Mist
8:20 AM 24.8 °F - 24.8 °F 100% 30.12 in 2.8 mi West 2.3 mph - N/A   Mist
8:50 AM 26.6 °F 22.6 °F 26.6 °F 100% 30.12 in - WSW 3.5 mph - N/A   Mist
9:20 AM 28.4 °F - 28.4 °F 100% 30.12 in - West 2.3 mph - N/A   Mist
9:50 AM 30.2 °F 26.7 °F 30.2 °F 100% 30.12 in 3.7 mi West 3.5 mph - N/A   Unknown
10:20 AM 33.8 °F - 32.0 °F 93% 30.12 in 4.3 mi WSW 2.3 mph - N/A   Unknown
10:50 AM 35.6 °F - 32.0 °F 87% 30.12 in 5.0 mi Calm Calm - N/A   Unknown
11:20 AM 39.2 °F - 33.8 °F 81% 30.12 in 5.6 mi Calm Calm - N/A   Unknown
11:50 AM 41.0 °F - 32.0 °F 70% 30.12 in 5.6 mi Variable 2.3 mph - N/A   Unknown
12:20 PM 41.0 °F - 33.8 °F 76% 30.12 in - Variable 2.3 mph - N/A   Clear
12:50 PM 42.8 °F 41.1 °F 33.8 °F 70% 30.12 in - Variable 3.5 mph - N/A   Clear
1:20 PM 44.6 °F - 33.8 °F 66% 30.09 in - Calm Calm - N/A   Clear
1:50 PM 44.6 °F - 32.0 °F 61% 30.09 in - Variable 2.3 mph - N/A   Clear
2:20 PM 46.4 °F - 32.0 °F 57% 30.09 in - Variable 2.3 mph - N/A   Clear
2:50 PM 46.4 °F 45.2 °F 32.0 °F 57% 30.09 in - ESE 3.5 mph - N/A   Clear
3:20 PM 46.4 °F - 32.0 °F 57% 30.09 in - Calm Calm - N/A   Clear
3:50 PM 46.4 °F - 32.0 °F 57% 30.09 in - North 2.3 mph - N/A   Clear
4:20 PM 46.4 °F - 33.8 °F 62% 30.09 in - Calm Calm - N/A   Clear
4:50 PM 44.6 °F 43.1 °F 33.8 °F 66% 30.09 in - North 3.5 mph - N/A   Clear
5:20 PM 42.8 °F - 32.0 °F 66% 30.09 in - North 2.3 mph - N/A   Clear
5:50 PM 39.2 °F 35.9 °F 32.0 °F 75% 30.09 in - ENE 4.6 mph - N/A   Clear
6:20 PM 37.4 °F - 32.0 °F 81% 30.09 in - Variable 2.3 mph - N/A   Clear
6:50 PM 32.0 °F 28.7 °F 28.4 °F 87% 30.09 in - West 3.5 mph - N/A   Clear
7:20 PM 30.2 °F 25.4 °F 28.4 °F 93% 30.12 in - WSW 4.6 mph - N/A   Clear
7:50 PM 32.0 °F 27.5 °F 28.4 °F 87% 30.12 in - WSW 4.6 mph - N/A   Clear
8:20 PM 30.2 °F 26.7 °F 28.4 °F 93% 30.12 in - West 3.5 mph - N/A   Clear
8:50 PM 32.0 °F - 30.2 °F 93% 30.12 in - WNW 2.3 mph - N/A   Clear
9:20 PM 30.2 °F - 28.4 °F 93% 30.12 in - Calm Calm - N/A   Clear
9:50 PM 30.2 °F - 30.2 °F 100% 30.12 in - Variable 2.3 mph - N/A   Clear
10:20 PM 28.4 °F - 26.6 °F 93% 30.12 in - West 2.3 mph - N/A   Haze
10:50 PM 26.6 °F - 24.8 °F 93% 30.12 in 3.1 mi Calm Calm - N/A   Haze
11:20 PM 26.6 °F - 24.8 °F 93% 30.12 in - Calm Calm - N/A   Haze
11:50 PM 24.8 °F 20.5 °F 23.0 °F 93% 30.12 in - Variable 3.5 mph - N/A   Haze